Location: ???? ????
(31.2831°N, 45.5190°E)
Time: 07:52:37
(UTC+00:00)

Cosmos 2154 Rocket - Pass Details

Date: 24 February 2021
Orbit: 966 x 996 km, 82.9° (Epoch: 15 April)

Event Time Altitude Azimuth Distance (km) Brightness Sun altitude
Rises 16:05:42 0° 173° (S) 3,671 7.0 -16.4°
Reaches altitude 10° 16:08:15 10° 170° (S) 2,722 6.2 -16.9°
Maximum altitude 16:14:21 59° 92° (E) 1,120 4.0 -18.2°
Drops below altitude 10° 16:20:26 10° 15° (NNE) 2,718 6.2 -19.5°
Sets 16:22:58 0° 11° (NNE) 3,665 6.9 -20.1°
